Sawtelle Peak

Sawtelle summit stationLocated on Sawtelle Peak in the Centennials. Use the Sawtelle SNOdar or the nearest SNOTEL station for snow depth data: White Elephant. The data on this page is also available to view at dataGarrison.com.

 

Elevation
9885ft
Jump to table bottom
Date Time Temperature
deg F
RH, % Wind Speed Wind Gust Wind Direction Pressure Light
01/31/23 18:00 1.9 91 0 0 S - 181 699.420 4
01/31/23 17:00 3.4 91 0 0 S - 184 700.060 12,532
01/31/23 16:00 2.8 91 0 0 S - 187 699.620 97,895
01/31/23 15:00 2.7 91 0 0 S - 184 699.580 230,612
01/31/23 14:00 4.8 92 0 0 S - 183 699.000 310,954
01/31/23 13:00 5.0 92 0 0 S - 188 699.780 575,370
01/31/23 12:00 4.2 91 0 0 S - 188 700.260 546,894
01/31/23 11:00 3.7 91 0 0 S - 185 700.480 378,075
01/31/23 10:00 2.2 90 0 0 S - 190 700.260 404,516
01/31/23 09:00 -0.3 90 0 0 S - 191 699.880 296,716
01/31/23 08:00 -0.6 89 0 0 S - 188 699.540 60,012
01/31/23 07:00 -1.1 89 0 0 S - 190 699.300 48
01/31/23 06:00 -2.8 89 0 0 S - 191 698.640 0
01/31/23 05:00 -5.0 88 0 0 S - 190 698.800 0
01/31/23 04:00 -7.3 87 0 0 S - 185 698.680 0
01/31/23 03:00 -8.5 87 0 0 S - 184 698.800 0
01/31/23 02:00 -9.3 87 0 0 S - 181 698.560 0
01/31/23 01:00 -9.9 86 0 0 S - 181 698.340 0
01/31/23 00:00 -10.2 86 0 0 S - 187 698.220 0
01/30/23 23:00 -10.4 86 0 0 S - 188 698.060 0
01/30/23 22:00 -10.2 86 0 0 S - 190 697.980 0
01/30/23 21:00 -9.5 87 0 0 S - 192 697.740 0
01/30/23 20:00 -9.3 87 0 0 S - 190 697.920 1
01/30/23 19:00 -8.8 87 0 0 S - 187 698.080 1
01/30/23 18:00 -8.0 87 0 0 S - 191 697.940 5
01/30/23 17:00 -6.9 88 0 0 S - 190 697.880 34,206
01/30/23 16:00 -6.3 88 0 0 S - 188 697.660 181,796
01/30/23 15:00 -7.3 87 0 0 S - 195 697.440 306,886
01/30/23 14:00 -8.5 87 0 0 S - 199 697.220 392,312
01/30/23 13:00 -9.4 86 0 0 S - 202 697.080 445,196
01/30/23 12:00 -9.6 86 0 0 S - 202 697.260 465,535
01/30/23 11:00 -11.2 86 0 0 S - 202 697.340 453,332
01/30/23 10:00 -12.0 86 0 0 S - 198 697.040 595,710
01/30/23 09:00 -14.7 85 0 0 SW - 204 696.440 624,185
01/30/23 08:00 -16.7 85 0 0 S - 201 695.620 276,376
01/30/23 07:00 -16.8 85 0 0 S - 201 694.740 118
01/30/23 06:00 -14.9 85 0 0 S - 198 694.780 0
01/30/23 05:00 -14.7 86 0 0 S - 199 694.680 0
01/30/23 04:00 -15.2 85 0 0 S - 199 694.580 0
01/30/23 03:00 -13.8 86 0 0 S - 198 694.340 0
01/30/23 02:00 -17.4 85 0 0 S - 199 694.180 0
01/30/23 01:00 -19.2 85 0 0 S - 197 693.740 0
01/30/23 00:00 -20.4 84 0 0 S - 199 694.060 0
01/29/23 23:00 -20.4 84 0 0 S - 199 694.060 0
01/29/23 22:00 -19.5 85 0 0 S - 201 694.080 0
01/29/23 21:00 -20.3 84 0 0 S - 199 694.200 0
01/29/23 20:00 -20.1 84 0 0 S - 201 693.960 0
01/29/23 19:00 -18.7 85 0 0 SW - 204 693.800 0
01/29/23 18:00 -18.4 85 0 0 S - 199 693.540 4
01/29/23 17:00 -17.4 85 0 0 S - 199 693.360 26,198